| time (UTC) | temp F | wind direction | speed MPH | gust MPH | rain 1hr in | rain 24hr in | rain mn in | humidity % | barometer mb |
| 20260905110013 | 57 | 192 | 0.0 | 0.0 | 0.00 | 0.00 | 0.00 | 83 | 1019.9 |
| 20260905104511 | 57 | 192 | 0.0 | 0.0 | 0.00 | 0.00 | 0.00 | 83 | 1019.9 |
| 20260905103010 | 57 | 192 | 0.0 | 0.0 | 0.00 | 0.00 | 0.00 | 82 | 1019.9 |
| 20260905101510 | 57 | 192 | 0.0 | 0.0 | 0.00 | 0.00 | 0.00 | 82 | 1020.0 |
| 20260905100008 | 57 | 192 | 0.0 | 0.0 | 0.00 | 0.00 | 0.00 | 81 | 1020.0 |
| 20260905094507 | 58 | 192 | 0.0 | 0.0 | 0.00 | 0.00 | 0.00 | 80 | 1020.0 |
| 20260905093005 | 58 | 192 | 0.0 | 0.0 | 0.00 | 0.00 | 0.00 | 78 | 1020.1 |
| 20260905091503 | 58 | 192 | 0.0 | 0.0 | 0.00 | 0.00 | 0.00 | 78 | 1020.1 |
| 20260905090002 | 58 | 192 | 0.0 | 0.0 | 0.00 | 0.00 | 0.00 | 77 | 1020.1 |
| 20260905084501 | 59 | 192 | 0.0 | 0.0 | 0.00 | 0.00 | 0.00 | 77 | 1020.2 |
| 20260905083100 | 59 | 192 | 0.0 | 0.0 | 0.00 | 0.00 | 0.00 | 76 | 1020.2 |
| 20260905081559 | 59 | 192 | 0.0 | 0.0 | 0.00 | 0.00 | 0.00 | 77 | 1020.2 |
| 20260905080104 | 59 | 192 | 0.0 | 0.0 | 0.00 | 0.00 | 0.00 | 77 | 1020.1 |
| 20260905074609 | 60 | 192 | 0.0 | 0.0 | 0.00 | 0.00 | 0.00 | 76 | 1020.0 |
| 20260905073053 | 60 | 192 | 0.0 | 0.0 | 0.00 | 0.00 | 0.00 | 76 | 1019.8 |
| 20260905071550 | 60 | 192 | 0.0 | 0.0 | 0.00 | 0.00 | 0.00 | 75 | 1019.8 |
| 20260905070105 | 60 | 192 | 0.0 | 0.0 | 0.00 | 0.00 | 0.00 | 75 | 1019.7 |
| 20260905064548 | 61 | 192 | 0.0 | 0.0 | 0.00 | 0.00 | 0.00 | 74 | 1019.5 |
| 20260905063045 | 62 | 192 | 0.0 | 1.0 | 0.00 | 0.00 | 0.00 | 72 | 1019.5 |
| 20260905061548 | 62 | 192 | 0.0 | 0.0 | 0.00 | 0.00 | 0.00 | 70 | 1019.5 |
| 20260905060045 | 63 | 192 | 0.0 | 4.0 | 0.00 | 0.00 | 0.00 | 69 | 1019.5 |
| 20260905054550 | 63 | 192 | 0.0 | 1.0 | 0.00 | 0.00 | 0.00 | 66 | 1019.5 |
| 20260905053046 | 64 | 192 | 0.0 | 0.0 | 0.00 | 0.00 | 0.00 | 65 | 1019.6 |
| 20260905051546 | 65 | 192 | 0.0 | 3.0 | 0.00 | 0.00 | 0.00 | 63 | 1019.5 |
| 20260905050046 | 65 | 192 | 0.0 | 2.0 | 0.00 | 0.00 | 0.00 | 61 | 1019.6 |
| 20260905044543 | 66 | 192 | 0.0 | 0.0 | 0.00 | 0.00 | 0.00 | 60 | 1019.6 |
| 20260905043043 | 66 | 192 | 0.0 | 3.0 | 0.00 | 0.00 | 0.00 | 58 | 1019.4 |
| 20260905041545 | 67 | 192 | 0.0 | 4.0 | 0.00 | 0.00 | 0.00 | 57 | 1019.3 |
| 20260905040041 | 67 | 192 | 0.0 | 5.0 | 0.00 | 0.00 | 0.00 | 58 | 1019.2 |
| 20260905034542 | 68 | 192 | 0.0 | 6.0 | 0.00 | 0.00 | 0.00 | 57 | 1019.1 |
| 20260905033049 | 69 | 192 | 0.0 | 5.0 | 0.00 | 0.00 | 0.00 | 56 | 1018.9 |
| 20260905031547 | 69 | 192 | 0.0 | 7.0 | 0.00 | 0.00 | 0.00 | 56 | 1018.7 |
| 20260905030046 | 71 | 192 | 1.0 | 12.0 | 0.00 | 0.00 | 0.00 | 54 | 1018.6 |
| 20260905024540 | 72 | 192 | 1.0 | 6.0 | 0.00 | 0.00 | 0.00 | 52 | 1018.6 |
| 20260905023039 | 73 | 192 | 2.0 | 6.0 | 0.00 | 0.00 | 0.00 | 49 | 1018.5 |
| 20260905021538 | 74 | 192 | 0.0 | 0.0 | 0.00 | 0.00 | 0.00 | 44 | 1018.4 |
| 20260905020038 | 74 | 192 | 0.0 | 1.0 | 0.00 | 0.00 | 0.00 | 43 | 1018.4 |
| 20260905014537 | 75 | 192 | 1.0 | 3.0 | 0.00 | 0.00 | 0.00 | 40 | 1018.5 |
| 20260905013036 | 75 | 192 | 1.0 | 5.0 | 0.00 | 0.00 | 0.00 | 39 | 1018.4 |
| 20260905011536 | 75 | 192 | 0.0 | 4.0 | 0.00 | 0.00 | 0.00 | 39 | 1018.3 |
| 20260905010035 | 76 | 192 | 0.0 | 6.0 | 0.00 | 0.00 | 0.00 | 37 | 1018.3 |
| 20260905004535 | 77 | 192 | 0.0 | 3.0 | 0.00 | 0.00 | 0.00 | 37 | 1018.2 |
| 20260905003034 | 77 | 192 | 0.0 | 4.0 | 0.00 | 0.00 | 0.00 | 38 | 1018.2 |
| 20260905001534 | 78 | 192 | 1.0 | 4.0 | 0.00 | 0.00 | 0.00 | 38 | 1018.3 |
| 20260905000035 | 78 | 192 | 0.0 | 5.0 | 0.00 | 0.00 | 0.00 | 38 | 1018.3 |
| 20260904234540 | 78 | 192 | 0.0 | 5.0 | 0.00 | 0.00 | 0.00 | 39 | 1018.4 |
| 20260904233032 | 79 | 192 | 0.0 | 2.0 | 0.00 | 0.00 | 0.00 | 39 | 1018.5 |
| 20260904231531 | 78 | 192 | 0.0 | 3.0 | 0.00 | 0.00 | 0.00 | 39 | 1018.7 |
| 20260904230030 | 78 | 192 | 1.0 | 4.0 | 0.00 | 0.00 | 0.00 | 39 | 1018.8 |
| 20260904224534 | 78 | 192 | 0.0 | 5.0 | 0.00 | 0.00 | 0.00 | 41 | 1018.9 |
| 20260904223027 | 78 | 192 | 0.0 | 6.0 | 0.00 | 0.00 | 0.00 | 43 | 1019.0 |
| 20260904221553 | 77 | 192 | 1.0 | 5.0 | 0.00 | 0.00 | 0.00 | 44 | 1019.1 |
| 20260904220022 | 75 | 192 | 0.0 | 2.0 | 0.00 | 0.00 | 0.00 | 46 | 1019.1 |
| 20260904214523 | 76 | 192 | 0.0 | 4.0 | 0.00 | 0.00 | 0.00 | 45 | 1019.2 |
| 20260904213027 | 77 | 192 | 1.0 | 4.0 | 0.00 | 0.00 | 0.00 | 46 | 1019.2 |
| 20260904211519 | 76 | 192 | 1.0 | 6.0 | 0.00 | 0.00 | 0.00 | 46 | 1019.2 |
| 20260904210015 | 74 | 192 | 0.0 | 2.0 | 0.00 | 0.00 | 0.00 | 49 | 1019.2 |
| 20260904204513 | 73 | 192 | 3.0 | 6.0 | 0.00 | 0.00 | 0.00 | 50 | 1019.3 |
| 20260904203012 | 73 | 192 | 0.0 | 3.0 | 0.00 | 0.00 | 0.00 | 50 | 1019.3 |
| 20260904201510 | 73 | 192 | 0.0 | 2.0 | 0.00 | 0.00 | 0.00 | 50 | 1019.3 |
| 20260904200014 | 73 | 192 | 0.0 | 3.0 | 0.00 | 0.00 | 0.00 | 51 | 1019.4 |
| 20260904194507 | 71 | 192 | 0.0 | 2.0 | 0.00 | 0.00 | 0.00 | 56 | 1019.6 |
| 20260904193008 | 72 | 192 | 0.0 | 3.0 | 0.00 | 0.00 | 0.00 | 57 | 1019.7 |
| 20260904191506 | 71 | 192 | 0.0 | 4.0 | 0.00 | 0.00 | 0.00 | 59 | 1019.8 |
| 20260904190004 | 71 | 192 | 1.0 | 4.0 | 0.00 | 0.00 | 0.00 | 59 | 1019.8 |
| 20260904184606 | 70 | 192 | 0.0 | 0.0 | 0.00 | 0.00 | 0.00 | 62 | 1019.9 |
| 20260904183058 | 70 | 192 | 1.0 | 4.0 | 0.00 | 0.00 | 0.00 | 62 | 1020.0 |
| 20260904181557 | 70 | 192 | 0.0 | 2.0 | 0.00 | 0.00 | 0.00 | 64 | 1019.9 |
| 20260904180052 | 68 | 192 | 2.0 | 6.0 | 0.00 | 0.00 | 0.00 | 67 | 1020.0 |
| 20260904174551 | 66 | 192 | 0.0 | 0.0 | 0.00 | 0.00 | 0.00 | 71 | 1020.1 |
| 20260904173047 | 66 | 192 | 0.0 | 0.0 | 0.00 | 0.00 | 0.00 | 71 | 1020.0 |
| 20260904171552 | 66 | 192 | 1.0 | 4.0 | 0.00 | 0.00 | 0.00 | 70 | 1019.9 |
| 20260904170046 | 66 | 192 | 0.0 | 4.0 | 0.00 | 0.00 | 0.00 | 71 | 1019.8 |
| 20260904164541 | 66 | 192 | 0.0 | 2.0 | 0.00 | 0.00 | 0.00 | 72 | 1019.7 |
| 20260904163041 | 66 | 192 | 0.0 | 3.0 | 0.00 | 0.00 | 0.00 | 73 | 1019.6 |
| 20260904161534 | 64 | 192 | 0.0 | 0.0 | 0.00 | 0.00 | 0.00 | 77 | 1019.5 |
| 20260904160044 | 63 | 192 | 0.0 | 0.0 | 0.00 | 0.00 | 0.00 | 78 | 1019.5 |
| 20260904154528 | 62 | 192 | 0.0 | 2.0 | 0.00 | 0.00 | 0.00 | 82 | 1019.4 |
| 20260904153023 | 61 | 192 | 0.0 | 2.0 | 0.00 | 0.00 | 0.00 | 84 | 1019.4 |
| 20260904151525 | 60 | 192 | 0.0 | 3.0 | 0.00 | 0.00 | 0.00 | 85 | 1019.4 |
| 20260904150031 | 59 | 192 | 0.0 | 2.0 | 0.00 | 0.00 | 0.00 | 87 | 1019.2 |
| 20260904144512 | 59 | 192 | 0.0 | 0.0 | 0.00 | 0.00 | 0.00 | 88 | 1019.1 |
| 20260904143009 | 58 | 192 | 0.0 | 0.0 | 0.00 | 0.00 | 0.00 | 88 | 1019.0 |
| 20260904141511 | 58 | 192 | 0.0 | 0.0 | 0.00 | 0.00 | 0.00 | 88 | 1018.8 |
| 20260904140004 | 59 | 192 | 0.0 | 0.0 | 0.00 | 0.00 | 0.00 | 88 | 1018.6 |
| 20260904134501 | 59 | 192 | 0.0 | 0.0 | 0.00 | 0.00 | 0.00 | 88 | 1018.4 |
| 20260904133104 | 59 | 192 | 0.0 | 0.0 | 0.00 | 0.00 | 0.00 | 87 | 1018.1 |
| 20260904131559 | 60 | 192 | 0.0 | 4.0 | 0.00 | 0.00 | 0.00 | 86 | 1018.1 |
| 20260904130056 | 60 | 192 | 0.0 | 1.0 | 0.00 | 0.00 | 0.00 | 85 | 1017.9 |
| 20260904124605 | 61 | 192 | 0.0 | 4.0 | 0.00 | 0.00 | 0.00 | 85 | 1017.8 |
| 20260904123052 | 61 | 192 | 0.0 | 3.0 | 0.00 | 0.00 | 0.00 | 84 | 1017.7 |
| 20260904121551 | 61 | 192 | 0.0 | 2.0 | 0.00 | 0.00 | 0.00 | 85 | 1017.7 |
| 20260904120054 | 61 | 192 | 0.0 | 2.0 | 0.00 | 0.00 | 0.00 | 86 | 1017.6 |
| 20260904114547 | 61 | 192 | 0.0 | 4.0 | 0.00 | 0.00 | 0.00 | 87 | 1017.5 |
| 20260904113050 | 62 | 192 | 0.0 | 5.0 | 0.00 | 0.00 | 0.00 | 87 | 1017.4 |
| 20260904111545 | 62 | 192 | 0.0 | 0.0 | 0.00 | 0.00 | 0.00 | 87 | 1017.5 |